Weather History for KRQB - September, 2011

Change the Weather History Date:

Sunday, September 11, 2011

  Actual Average Record
Temperature  
Mean Temperature 64 °F -  
Max Temperature 78 °F 73 °F 89 °F (1978)
Min Temperature 50 °F 49 °F 35 °F (1993)
Degree Days  
Heating Degree Days 1    
Growing Degree Days 14 (Base 50)    
Moisture  
Dew Point 54 °F    
Average Humidity 76    
Maximum Humidity 100    
Minimum Humidity 44    
Precipitation  
Precipitation 0.00 in - - ()
Sea Level Pressure  
Sea Level Pressure 29.99 in    
Wind  
Wind Speed 3 mph (West)    
Max Wind Speed 10 mph    
Max Gust Speed -    
Visibility 8 miles    
Events Fog    
Averages and records for this station are not official NWS values.
T = Trace of Precipitation, MM = Missing Value Source: NWS Daily Summary

Daily Weather History Graph

Daily Weather History Graph

Search for Another Location

Airport or City:

Trip Planner

Search our weather history database for the weather conditions in past years. The results will help you decide how hot, cold, wet, or windy it might be!

Date:

Astronomy

Sep. 11, 2011 Rise Set
Actual Time 7:16 AM EDT 8:00 PM EDT
Civil Twilight 6:47 AM EDT 8:29 PM EDT
Nautical Twilight 6:12 AM EDT 9:03 PM EDT
Astronomical Twilight 5:37 AM EDT 9:39 PM EDT
Moon 7:20 PM EDT (9/11) 6:35 AM EDT (9/11)
Length of Visible Light 13h 41m
Length of Day
12h 43m
Full, 100% of the Moon is Illuminated
Sep 11
Full
Sep 12
Full
Sep 20
Last Quarter
Sep 27
New
Oct 3
First Quarter

Hourly Weather History & Observations

Time (EDT) Temp. Dew Point Humidity Pressure Visibility Wind Dir Wind Speed Gust Speed Precip Events Conditions
12:13 AM 55.4 °F 53.6 °F 94% 30.03 in 5.0 mi Calm Calm - N/A   Clear
12:34 AM 55.4 °F 53.6 °F 94% 30.03 in 7.0 mi Calm Calm - N/A   Clear
12:53 AM 53.6 °F 53.6 °F 100% 30.03 in 5.0 mi Calm Calm - N/A   Clear
1:13 AM 55.4 °F 53.6 °F 94% 30.03 in 10.0 mi Calm Calm - N/A   Clear
1:53 AM 53.6 °F 51.8 °F 94% 30.03 in 0.8 mi Calm Calm - N/A   Mostly Cloudy
2:34 AM 51.8 °F 51.8 °F 100% 30.03 in 7.0 mi SSW 4.6 mph - N/A   Scattered Clouds
2:53 AM 51.8 °F 51.8 °F 100% 30.02 in 1.8 mi NW 3.5 mph - N/A   Mostly Cloudy
3:14 AM 51.8 °F 50.0 °F 94% 30.01 in 2.5 mi SSE 3.5 mph - N/A   Scattered Clouds
3:34 AM 51.8 °F 51.8 °F 100% 30.01 in 5.0 mi Calm Calm - N/A   Mostly Cloudy
3:53 AM 51.8 °F 51.8 °F 100% 30.01 in 10.0 mi Calm Calm - N/A   Scattered Clouds
4:14 AM 51.8 °F 50.0 °F 94% 30.01 in 3.0 mi West 9.2 mph - N/A   Clear
4:33 AM 51.8 °F 51.8 °F 100% 30.01 in 2.5 mi WNW 8.1 mph - N/A   Scattered Clouds
4:53 AM 50.0 °F 50.0 °F 100% 30.01 in 4.0 mi Calm Calm - N/A   Scattered Clouds
5:14 AM 50.0 °F 50.0 °F 100% 30.01 in 1.8 mi Calm Calm - N/A   Mostly Cloudy
5:33 AM 50.0 °F 50.0 °F 100% 30.01 in 1.0 mi WNW 4.6 mph - N/A   Mostly Cloudy
5:53 AM 50.0 °F 50.0 °F 100% 30.01 in 5.0 mi North 3.5 mph - N/A   Mostly Cloudy
6:14 AM 50.0 °F 50.0 °F 100% 30.01 in 4.0 mi WNW 6.9 mph - N/A   Scattered Clouds
6:34 AM 50.0 °F 50.0 °F 100% 30.01 in 2.0 mi Calm Calm - N/A   Mostly Cloudy
6:53 AM 50.0 °F 50.0 °F 100% 30.01 in 1.2 mi Calm Calm - N/A   Overcast
7:14 AM 50.0 °F 48.2 °F 94% 30.01 in 1.0 mi Calm Calm - N/A   Overcast
7:33 AM 50.0 °F 50.0 °F 100% 30.01 in 0.2 mi WNW 5.8 mph - N/A Fog Fog
8:14 AM 51.8 °F 51.8 °F 100% 30.03 in 7.0 mi Calm Calm - N/A   Overcast
8:33 AM 53.6 °F 53.6 °F 100% 30.03 in 7.0 mi Calm Calm - N/A   Mostly Cloudy
8:53 AM 55.4 °F 53.6 °F 94% 30.02 in 10.0 mi Calm Calm - N/A   Clear
9:14 AM 57.2 °F 55.4 °F 94% 30.02 in 10.0 mi Calm Calm - N/A   Clear
9:33 AM 60.8 °F 57.2 °F 88% 30.02 in 10.0 mi Calm Calm - N/A   Clear
10:14 AM 64.4 °F 57.2 °F 77% 30.02 in 10.0 mi Calm Calm - N/A   Clear
10:33 AM 69.8 °F 59.0 °F 68% 30.02 in 10.0 mi WNW 4.6 mph - N/A   Clear
10:53 AM 71.6 °F 55.4 °F 57% 30.02 in 10.0 mi WNW 5.8 mph - N/A   Clear
11:14 AM 73.4 °F 53.6 °F 50% 30.02 in 10.0 mi WNW 5.8 mph - N/A   Clear
11:33 AM 73.4 °F 53.6 °F 50% 30.01 in 10.0 mi West 5.8 mph - N/A   Clear
11:54 AM 73.4 °F 53.6 °F 50% 30.01 in 10.0 mi WSW 6.9 mph - N/A   Clear
12:14 PM 75.2 °F 55.4 °F 50% 30.01 in 10.0 mi SW 6.9 mph - N/A   Clear
12:33 PM 75.2 °F 55.4 °F 50% 30.00 in 10.0 mi NW 4.6 mph - N/A   Clear
12:54 PM 77.0 °F 55.4 °F 47% 30.00 in 10.0 mi WSW 6.9 mph - N/A   Clear
1:33 PM 77.0 °F 55.4 °F 47% 29.98 in 10.0 mi West 6.9 mph - N/A   Clear
2:13 PM 77.0 °F 55.4 °F 47% 29.97 in 10.0 mi WSW 6.9 mph - N/A   Scattered Clouds
2:33 PM 77.0 °F 53.6 °F 44% 29.97 in 10.0 mi West 4.6 mph - N/A   Clear
3:13 PM 78.8 °F 55.4 °F 44% 29.96 in 10.0 mi SW 6.9 mph - N/A   Scattered Clouds
3:33 PM 78.8 °F 55.4 °F 44% 29.95 in 10.0 mi West 8.1 mph - N/A   Scattered Clouds
3:54 PM 78.8 °F 55.4 °F 44% 29.94 in 10.0 mi West 8.1 mph - N/A   Scattered Clouds
4:13 PM 78.8 °F 55.4 °F 44% 29.94 in 10.0 mi West 6.9 mph - N/A   Scattered Clouds
4:54 PM 78.8 °F 55.4 °F 44% 29.93 in 10.0 mi West 10.4 mph - N/A   Scattered Clouds
5:13 PM 78.8 °F 55.4 °F 44% 29.93 in 10.0 mi WSW 6.9 mph - N/A   Scattered Clouds
5:54 PM 77.0 °F 57.2 °F 50% 29.93 in 10.0 mi SSW 8.1 mph - N/A   Scattered Clouds
6:13 PM 77.0 °F 57.2 °F 50% 29.93 in 10.0 mi WSW 8.1 mph - N/A   Scattered Clouds
6:33 PM 77.0 °F 55.4 °F 47% 29.93 in 10.0 mi West 8.1 mph - N/A   Clear
6:54 PM 75.2 °F 57.2 °F 53% 29.93 in 10.0 mi WSW 8.1 mph - N/A   Clear
7:13 PM 73.4 °F 57.2 °F 57% 29.93 in 10.0 mi WSW 5.8 mph - N/A   Clear
7:34 PM 71.6 °F 57.2 °F 60% 29.94 in 10.0 mi SW 5.8 mph - N/A   Clear
7:54 PM 69.8 °F 57.2 °F 64% 29.93 in 10.0 mi Calm Calm - N/A   Clear
8:13 PM 68.0 °F 57.2 °F 68% 29.93 in 10.0 mi Calm Calm - N/A   Clear
8:33 PM 66.2 °F 57.2 °F 73% 29.94 in 10.0 mi Calm Calm - N/A   Clear
8:53 PM 64.4 °F 57.2 °F 77% 29.94 in 10.0 mi Calm Calm - N/A   Clear
9:14 PM 62.6 °F 55.4 °F 77% 29.95 in 10.0 mi Calm Calm - N/A   Clear
9:33 PM 59.0 °F 55.4 °F 88% 29.96 in 10.0 mi Calm Calm - N/A   Clear
9:53 PM 59.0 °F 55.4 °F 88% 29.96 in 10.0 mi Calm Calm - N/A   Clear
10:14 PM 59.0 °F 55.4 °F 88% 29.96 in 10.0 mi Calm Calm - N/A   Clear
10:33 PM 59.0 °F 57.2 °F 94% 29.96 in 10.0 mi Calm Calm - N/A   Clear
10:54 PM 59.0 °F 55.4 °F 88% 29.96 in 7.0 mi Calm Calm - N/A   Clear
11:14 PM 57.2 °F 55.4 °F 94% 29.96 in 7.0 mi Calm Calm - N/A   Clear
11:33 PM 59.0 °F 55.4 °F 88% 29.96 in 7.0 mi Calm Calm - N/A   Clear
11:54 PM 59.0 °F 57.2 °F 94% 29.96 in 7.0 mi Calm Calm - N/A   Clear